Regional Weather Roundup
Issued by NWS

Home | Current Version | Previous Version | Graphics & Text | Print | Product List | Glossary On
Versions: 1 2 3 4 5 6 7 8 9 10 11 12 13 14 15 16 17 18 19 20 21 22 23 24 25 26 27 28 29 30 31 32 33 34 35 36 37 38 39 40 41 42 43 44 45 46 47 48 49 50
000
ASUS44 KMEG 311310
RWRTN
TENNESSEE HOURLY STATE WEATHER ROUNDUP
NATIONAL WEATHER SERVICE MEMPHIS TN
800 AM CDT FRI JUL 31 2015

TNZ002-004-019-021-049-052-054-088>092-311400-
WEST TENNESSEE

CITY           SKY/WX    TMP DP  RH WIND       PRES   REMARKS
MEMPHIS INTL   MOSUNNY   78  65  63 NE7       30.11R
NWS MEMPHIS      N/A     76 N/A N/A MISG        N/A
JACKSON        SUNNY     75  65  70 NE5       30.11R
DYERSBURG        N/A    N/A N/A N/A MISG        N/A
PARIS          SUNNY     72  64  78 N3        30.12R
LEXINGTON      SUNNY     72  66  83 CALM      30.10S
$$

TNZ008-025-027-028-033-062-065-066-311400-
NORTH MIDDLE TENNESSEE

CITY           SKY/WX    TMP DP  RH WIND       PRES   REMARKS
NASHVILLE      MOSUNNY   75  63  66 CALM      30.10R
CLARKSVILLE    SUNNY     73  66  78 N6        30.10S
SMYRNA         SUNNY     71  68  90 CALM      30.11R
CROSSVILLE     SUNNY     70  58  65 NE6       30.14R
$$

TNZ061-075-076-078-094-096-097-311400-
SOUTH MIDDLE TENNESSEE

CITY           SKY/WX    TMP DP  RH WIND       PRES   REMARKS
FAYETTEVILLE   SUNNY     70  59  68 NE8       30.09R
TULLAHOMA      SUNNY     72  61  68 N6        30.11R
WINCHESTER     SUNNY     70  63  78 N3        30.10R
MCMINNVILLE    SUNNY     70  70 100 NE5       30.11R
COLUMBIA       SUNNY     72  66  83 CALM      30.09S
SHELBYVILLE      N/A     72  66  83 N5        30.11R
$$

TNZ017-018-042-046-047-311400-
NORTHEAST TENNESSEE

CITY           SKY/WX    TMP DP  RH WIND       PRES   REMARKS
TRI CITIES     MOSUNNY   70  64  81 CALM      30.10S
ELIZABETHTON   SUNNY     68  59  73 E3        30.11S
$$

TNZ012-013-036-069-073-074-311400-
CENTRAL EAST TENNESSEE

CITY           SKY/WX    TMP DP  RH WIND       PRES   REMARKS
KNOXVILLE      MOSUNNY   74  61  63 N8        30.07R
OAK RIDGE      SUNNY     73  62  68 E3        30.09R
GATLINBURG     SUNNY     73  64  73 CALM      30.08R
MORRISTOWN     SUNNY     73  63  68 E5        30.10S
$$

TNZ083-085-099-311400-
SOUTHEAST TENNESSEE

CITY           SKY/WX    TMP DP  RH WIND       PRES   REMARKS
CHATTANOOGA    MOSUNNY   77  58  51 N14       30.06R
$$

SKY/WX REPORTED AS FAIR MEANS FEW OR NO CLOUDS BELOW
12 THOUSAND FEET.




USA.gov is the U.S. government's official web portal to all federal, state and local government web resources and services.